Location: Newark
(41.0400°S, 62.7845°W)
Time: 15:20:44
(UTC+00:00)

Vanguard 2 Rocket - Pass Details

Date: 07 December 2021
Orbit: 553 x 3325 km, 32.9° (Epoch: 23 January)

Event Time Altitude Azimuth Distance (km) Brightness Sun altitude
Rises 05:00:43 0° 349° (N) 6,868 - -24.9°
Reaches altitude 10° 05:07:10 10° 3° (N) 6,124 - -24.6°
Exits shadow 05:12:39 17° 19° (NNE) 5,664 10.4 -24.3°
Maximum altitude 05:19:39 21° 43° (NE) 5,395 10.5 -23.9°
Drops below altitude 10° 05:31:36 10° 82° (E) 5,927 11.2 -23.1°
Sets 05:37:31 0° 95° (E) 6,605 11.7 -22.6°
